Current weather by "City, St" or "zip code"  
 
Advertise Here

Current Conditions: LaGrange-Callaway Airport, GA

Mostly Cloudy


85.0 F

Last Updated on May 31 2020, 5:55 pm EDT
Humidity: 41%
Wind Speed: N 0.0 mph
Barometer 30.05 in
Dewpoint: 58.3 F
Visibility: 10.00 mi
Precip: --
Heat Index: 84 F
Wind Chill: NA
Current conditions at:

LaGrange-Callaway Airport, GA (KLGC)

Lat: 33.00617 Lon: 85.06609

Local Radar Image active severe weather and emergency alerts image image weather storm and storm spotter reports image weather observation monitoring service image
Local
Radar
Active
Alerts
Storm Reports Obs
Monitoring

Sign-up For Email & Text Message Weather Alert Notification Services


Advertise Here

Observation History for LaGrange-Callaway Airport, GA


Time Wind
(mph)
Vis
(mi)
Weather Precip (in) Temperature (F) Relative
Humidity
Wind
Chill
(F)
Heat
Index
(F)
Pressure
Air Dwpt altimeter
(in)
sea level
(mb)
Rmks
5:55 pm EDT N 0.0 10.00 Mostly Cloudy -- 85.0 58.3 41% NA 84 30.05 M
4:55 pm EDT N 0.0 10.00 Partly Cloudy -- 85.0 57.2 39% NA 84 30.06 M
3:55 pm EDT NE 3.5 10.00 Mostly Cloudy -- 85.0 57.9 40% NA 84 30.07 M
2:55 pm EDT N 3.5 10.00 Partly Cloudy -- 83.0 57.7 42% NA 83 30.08 M
1:55 pm EDT N 11.5 G 17.3 10.00 Fair -- 83.0 58.1 42% NA 83 30.09 M
12:55 pm EDT N 8.1 10.00 Fair -- 82.0 55.0 40% NA 81 30.09 M
12:35 pm EDT N 8.1 10.00 Fair -- 82.0 55.9 40% NA 81 30.09 M
11:55 am EDT N 0.0 10.00 Fair -- 81.0 56.8 44% NA 81 30.10 M
10:55 am EDT N 0.0 10.00 Fair -- 77.0 57.7 51% NA NA 30.10 M
9:55 am EDT N 0.0 10.00 Fair -- 73.0 56.3 57% NA NA 30.11 M
8:55 am EDT N 0.0 10.00 Fair -- 69.0 55.8 62% NA NA 30.11 M
7:55 am EDT N 0.0 10.00 Fair -- 65.0 58.1 79% NA NA 30.09 M
6:55 am EDT N 0.0 10.00 Fair -- 57.0 56.5 97% NA NA 30.07 M
5:55 am EDT N 0.0 1.25 Fog/Mist -- 58.0 57.4 97% NA NA 30.06 M
4:55 am EDT N 0.0 10.00 Fair -- 61.0 58.6 93% NA NA 30.05 M
3:55 am EDT N 0.0 10.00 Fair -- 61.0 59.9 97% NA NA 30.04 M
2:55 am EDT N 0.0 10.00 Fair -- 62.0 61.0 97% NA NA 30.05 M
1:55 am EDT N 0.0 10.00 Fair -- 64.0 61.5 93% NA NA 30.06 M
12:55 am EDT N 0.0 10.00 Fair -- 65.0 63.0 92% NA NA 30.06 M
11:55 pm EDT N 0.0 10.00 Fair -- 70.0 61.0 72% NA NA 30.06 M
10:55 pm EDT N 0.0 10.00 Fair -- 70.0 62.1 75% NA NA 30.05 M
9:55 pm EDT N 0.0 10.00 Fair -- 73.0 63.3 72% NA NA 30.03 M
8:55 pm EDT N 0.0 10.00 Fair -- 78.0 61.7 57% NA NA 30.02 M
7:55 pm EDT NW 8.1 10.00 Fair -- 82.0 60.6 48% NA 82 30.01 M

Regional Weather Observation


Carrollton West Georgia Regional Airport, GA (KCTJ)

Fair
81.0 F

Anniston Metro Airport, AL (KANB)

Fair
84.0 F

Newnan, Newnan Coweta County Airport, GA (KCCO)

Partly Cloudy
85.0 F

Alexander City, Thomas C Russell Field Airport, AL (KALX)

Fair
84.0 F

Atlanta Regional Airport-Falcon Field, GA (KFFC)

A Few Clouds
86.0 F

Auburn-Opelika Airport, AL (KAUO)

Mostly Cloudy
86.0 F